Location: Newark
(48.3453°N, 0.5589°E)
Time: 08:32:47
(UTC+00:00)

Vanguard 1 - Visible Passes

Search period start: 15 December 2019 00:00
Search period end: 25 December 2019 00:00
Orbit: 651 x 3832 km, 34.3° (Epoch: 14 December)

Date Brightness Start Highest point End Pass type
(mag) Time Alt. Az. Time Alt. Az. Time Alt. Az.
15 Dec 13.9 00:22:33 18° ESE 00:22:33 18° ESE 00:31:30 10° E visible
15 Dec 13.3 02:35:17 38° S 02:40:15 41° SSE 02:59:22 10° E visible
15 Dec 13.1 04:48:02 22° WSW 05:04:45 53° S 05:22:09 10° ESE visible
15 Dec 13.2 07:08:09 10° W 07:28:31 45° SSW 07:42:07 10° SE visible
16 Dec 13.8 00:42:35 24° ESE 00:42:35 24° ESE 00:54:25 10° E visible
16 Dec 13.2 02:55:19 41° S 03:01:06 46° SSE 03:20:40 10° E visible
16 Dec 13.1 05:08:03 19° WSW 05:25:48 54° S 05:42:59 10° ESE visible
17 Dec 13.6 01:02:32 29° SE 01:02:32 29° SE 01:16:37 10° E visible
17 Dec 13.1 03:15:16 42° SSW 03:22:02 50° SSE 03:41:49 10° E visible
17 Dec 13.1 05:27:59 17° WSW 05:46:50 53° S 06:03:43 10° ESE visible
18 Dec 13.4 01:22:25 35° SE 01:22:25 35° SE 01:38:24 10° E visible
18 Dec 13.1 03:35:07 42° SSW 03:43:03 53° S 04:02:54 10° ESE visible
18 Dec 13.2 05:47:50 14° W 06:07:48 51° SSW 06:24:19 10° SE visible
18 Dec 14.2 23:29:31 11° E 23:29:31 11° E 23:30:45 10° E visible
19 Dec 13.3 01:42:13 41° SE 01:42:13 41° SE 01:59:56 10° E visible
19 Dec 13.1 03:54:56 40° SW 04:04:06 55° S 04:23:54 10° ESE visible
19 Dec 13.2 06:07:38 11° W 06:28:38 47° SSW 06:44:46 10° SE visible
19 Dec 14.0 23:49:17 16° E 23:49:17 16° E 23:53:50 10° E visible
20 Dec 13.1 02:01:59 46° SSE 02:01:59 46° SSE 02:21:19 10° E visible
20 Dec 13.1 04:14:41 37° SW 04:25:12 55° S 04:44:48 10° ESE visible
20 Dec 13.3 06:28:36 10° W 06:49:22 43° SSW 07:05:02 10° SE visible
21 Dec 13.9 00:09:00 21° ESE 00:09:00 21° ESE 00:16:08 10° E visible
21 Dec 13.0 02:21:42 50° SSE 02:21:42 50° SSE 02:42:34 10° E visible
21 Dec 13.1 04:34:24 33° WSW 04:46:15 54° S 05:05:35 10° ESE visible
21 Dec 13.4 06:50:09 10° W 07:09:57 38° SSW 07:25:02 10° SSE visible
22 Dec 13.7 00:28:42 26° ESE 00:28:42 26° ESE 00:38:01 10° E visible
22 Dec 12.9 02:41:24 53° S 02:42:15 53° SSE 03:03:44 10° E visible
22 Dec 13.1 04:54:06 29° WSW 05:07:17 52° SSW 05:26:14 10° SE visible
23 Dec 13.6 00:48:22 31° ESE 00:48:22 31° ESE 00:59:39 10° E visible
23 Dec 12.9 03:01:05 53° S 03:03:17 55° S 03:24:49 10° ESE visible
23 Dec 13.2 05:13:46 25° WSW 05:28:12 48° SSW 05:46:44 10° SE visible
24 Dec 13.4 01:08:02 36° ESE 01:08:02 36° ESE 01:21:07 10° E visible
24 Dec 12.9 03:20:44 52° SSW 03:24:22 55° S 03:45:47 10° ESE visible
24 Dec 13.3 05:33:26 21° W 05:49:00 44° SSW 06:07:00 10° SE visible
